• In Hungary
  • List of Countries
  • For 7 days
  • Water Temperature
  • Satellite Maps
  • Weather Map
  • News
  • Weather Widgets
  • user-avatar
    Login

    Hourly Weather Haskovo

    Today, 16 December, Saturday

    Time Temperature Precipitation Wind Pressure Humidity
    00:00 +8°C° 0 mm 4 mps 736 mmHg 83%
    01:00 +8°C° 0 mm 4 mps 736 mmHg 84%
    02:00 +8°C° 0 mm 4 mps 735 mmHg 84%
    03:00 +10°C° 0 mm 4 mps 735 mmHg 84%
    04:00 +10°C° 0 mm 4 mps 735 mmHg 84%
    05:00 +9°C° 0 mm 5 mps 735 mmHg 84%
    06:00 +10°C° 0 mm 4 mps 735 mmHg 84%
    07:00 +10°C° 0 mm 4 mps 735 mmHg 84%
    08:00 +10°C° 0 mm 4 mps 735 mmHg 84%
    09:00 +10°C° 0 mm 5 mps 735 mmHg 77%
    10:00 +13°C° 0 mm 5 mps 735 mmHg 70%
    11:00 +15°C° 0 mm 6 mps 735 mmHg 63%
    12:00 +15°C° 0 mm 6 mps 735 mmHg 61%
    13:00 +15°C° 0 mm 6 mps 735 mmHg 59%
    14:00 +16°C° 0 mm 6 mps 735 mmHg 56%
    15:00 +15°C° 0 mm 5 mps 735 mmHg 61%
    16:00 +14°C° 0 mm 5 mps 735 mmHg 66%
    17:00 +13°C° 0 mm 4 mps 735 mmHg 71%
    18:00 +13°C° 0.2 mm 4 mps 735 mmHg 74%
    19:00 +13°C° 0.2 mm 4 mps 736 mmHg 77%
    20:00 +12°C° 0.2 mm 4 mps 736 mmHg 80%
    21:00 +12°C° 0.6 mm 4 mps 736 mmHg 83%
    22:00 +12°C° 0.6 mm 3 mps 736 mmHg 86%
    23:00 +13°C° 0.6 mm 2 mps 736 mmHg 89%

    Tomorrow, 17 December, Sunday

    Time Temperature Precipitation Wind Pressure Humidity
    00:00 +12°C° 1.2 mm 3 mps 736 mmHg 89%
    01:00 +12°C° 1.2 mm 3 mps 735 mmHg 90%
    02:00 +12°C° 1.2 mm 3 mps 735 mmHg 91%
    03:00 +11°C° 1.1 mm 3 mps 735 mmHg 90%
    04:00 +11°C° 1.1 mm 3 mps 735 mmHg 90%
    05:00 +11°C° 1.1 mm 4 mps 735 mmHg 89%
    06:00 +10°C° 1.7 mm 4 mps 735 mmHg 89%
    07:00 +10°C° 1.7 mm 3 mps 735 mmHg 88%
    08:00 +9°C° 1.7 mm 3 mps 735 mmHg 88%
    09:00 +9°C° 0.9 mm 3 mps 735 mmHg 86%
    10:00 +9°C° 0.9 mm 3 mps 736 mmHg 84%
    11:00 +8°C° 0.9 mm 3 mps 736 mmHg 82%
    12:00 +8°C° 0.2 mm 3 mps 736 mmHg 80%
    13:00 +8°C° 0.2 mm 3 mps 736 mmHg 79%
    14:00 +8°C° 0.2 mm 3 mps 736 mmHg 77%
    15:00 +8°C° 0 mm 3 mps 737 mmHg 78%
    16:00 +7°C° 0 mm 2 mps 737 mmHg 79%
    17:00 +7°C° 0 mm 2 mps 737 mmHg 80%
    18:00 +7°C° 0 mm 2 mps 738 mmHg 81%
    19:00 +7°C° 0 mm 2 mps 739 mmHg 82%
    20:00 +7°C° 0 mm 1 mps 740 mmHg 83%
    21:00 +7°C° 0 mm 1 mps 740 mmHg 84%
    22:00 +6°C° 0 mm 1 mps 741 mmHg 86%
    23:00 +6°C° 0 mm 1 mps 741 mmHg 87%

    Day after tomorrow, 18 December, Monday

    Time Temperature Precipitation Wind Pressure Humidity
    00:00 +6°C° 0 mm 1 mps 742 mmHg 87%
    01:00 +5°C° 0 mm 1 mps 742 mmHg 88%
    02:00 +5°C° 0 mm 1 mps 742 mmHg 88%
    03:00 +5°C° 0 mm 1 mps 742 mmHg 89%
    04:00 +5°C° 0 mm 1 mps 742 mmHg 89%
    05:00 +5°C° 0 mm 1 mps 742 mmHg 89%
    06:00 +4°C° 0 mm 1 mps 743 mmHg 90%
    07:00 +4°C° 0 mm 1 mps 743 mmHg 90%
    08:00 +4°C° 0 mm 1 mps 743 mmHg 90%
    09:00 +4°C° 0 mm 2 mps 743 mmHg 85%
    10:00 +4°C° 0 mm 2 mps 744 mmHg 79%
    11:00 +5°C° 0 mm 2 mps 744 mmHg 73%
    12:00 +4°C° 0.1 mm 3 mps 743 mmHg 71%
    13:00 +5°C° 0.1 mm 3 mps 743 mmHg 69%
    14:00 +5°C° 0.1 mm 3 mps 743 mmHg 66%
    15:00 +4°C° 0.2 mm 3 mps 743 mmHg 70%
    16:00 +5°C° 0.2 mm 2 mps 743 mmHg 73%
    17:00 +4°C° 0.2 mm 2 mps 743 mmHg 76%
    18:00 +4°C° 0.4 mm 2 mps 743 mmHg 78%
    19:00 +3°C° 0.4 mm 3 mps 743 mmHg 81%
    20:00 +2°C° 0.4 mm 3 mps 744 mmHg 83%
    21:00 +2°C° 0.5 mm 3 mps 744 mmHg 84%
    22:00 +2°C° 0.5 mm 3 mps 744 mmHg 86%
    23:00 +1°C° 0.5 mm 3 mps 744 mmHg 88%

    19 December, Tuesday

    Time Temperature Precipitation Wind Pressure Humidity
    00:00 +1°C° 0.4 mm 3 mps 745 mmHg 89%
    01:00 +2°C° 0.4 mm 2 mps 745 mmHg 89%
    02:00 +2°C° 0.4 mm 2 mps 745 mmHg 90%
    03:00 +2°C° 0.4 mm 2 mps 745 mmHg 91%
    04:00 +2°C° 0.4 mm 2 mps 746 mmHg 91%
    05:00 +2°C° 0.4 mm 2 mps 746 mmHg 92%
    06:00 +1°C° 0.2 mm 2 mps 747 mmHg 91%
    07:00 +1°C° 0.2 mm 2 mps 747 mmHg 91%
    08:00 +1°C° 0.2 mm 2 mps 748 mmHg 91%
    09:00 +2°C° 0.1 mm 2 mps 748 mmHg 89%
    10:00 +2°C° 0.1 mm 2 mps 749 mmHg 88%
    11:00 +2°C° 0.1 mm 2 mps 749 mmHg 87%
    12:00 +2°C° 0.1 mm 2 mps 749 mmHg 85%
    13:00 +3°C° 0.1 mm 2 mps 749 mmHg 84%
    14:00 +3°C° 0.1 mm 2 mps 749 mmHg 82%
    15:00 +2°C° 0.1 mm 2 mps 749 mmHg 84%
    16:00 +2°C° 0.1 mm 2 mps 750 mmHg 85%
    17:00 +2°C° 0.1 mm 2 mps 750 mmHg 86%
    18:00 +1°C° 0.1 mm 2 mps 750 mmHg 87%
    19:00 +1°C° 0.1 mm 2 mps 751 mmHg 87%
    20:00 +1°C° 0.1 mm 2 mps 751 mmHg 87%
    21:00 -1°C° 0.1 mm 2 mps 751 mmHg 87%
    22:00 -1°C° 0.1 mm 2 mps 751 mmHg 87%
    23:00 -1°C° 0.1 mm 2 mps 752 mmHg 87%

    20 December, Wednesday

    Time Temperature Precipitation Wind Pressure Humidity
    00:00 -1°C° 0 mm 2 mps 752 mmHg 87%
    01:00 -2°C° 0 mm 2 mps 752 mmHg 87%
    02:00 -2°C° 0 mm 2 mps 752 mmHg 87%
    03:00 -2°C° 0 mm 2 mps 752 mmHg 86%
    04:00 -2°C° 0 mm 2 mps 752 mmHg 86%
    05:00 -2°C° 0 mm 3 mps 752 mmHg 85%
    06:00 -2°C° 0 mm 2 mps 752 mmHg 85%
    07:00 -2°C° 0 mm 2 mps 752 mmHg 84%
    08:00 -2°C° 0 mm 2 mps 752 mmHg 83%
    09:00 -2°C° 0 mm 2 mps 753 mmHg 80%
    10:00 -1°C° 0 mm 3 mps 753 mmHg 76%
    11:00 0°C° 0 mm 3 mps 753 mmHg 73%
    12:00 0°C° 0 mm 3 mps 753 mmHg 72%
    13:00 0°C° 0 mm 3 mps 752 mmHg 71%
    14:00 +1°C° 0 mm 3 mps 752 mmHg 71%
    15:00 +1°C° 0 mm 2 mps 752 mmHg 73%
    16:00 +1°C° 0 mm 2 mps 752 mmHg 76%
    17:00 +1°C° 0 mm 1 mps 752 mmHg 79%
    18:00 +1°C° 0 mm 1 mps 752 mmHg 79%
    19:00 +1°C° 0 mm 1 mps 752 mmHg 80%
    20:00 0°C° 0 mm 1 mps 752 mmHg 80%
    21:00 0°C° 0 mm 1 mps 752 mmHg 80%
    22:00 0°C° 0 mm 1 mps 752 mmHg 80%
    23:00 -1°C° 0 mm 1 mps 752 mmHg 80%

    21 December, Thursday

    Time Temperature Precipitation Wind Pressure Humidity
    00:00 -1°C° 0 mm 1 mps 752 mmHg 80%
    01:00 -1°C° 0 mm 1 mps 751 mmHg 79%
    02:00 -1°C° 0 mm 1 mps 751 mmHg 79%
    03:00 -1°C° 0 mm 1 mps 751 mmHg 78%
    04:00 -2°C° 0 mm 1 mps 751 mmHg 77%
    05:00 -2°C° 0 mm 1 mps 751 mmHg 75%
    06:00 -2°C° 0 mm 1 mps 751 mmHg 73%
    07:00 -2°C° 0 mm 1 mps 751 mmHg 71%
    08:00 -2°C° 0 mm 1 mps 751 mmHg 69%
    09:00 -2°C° 0 mm 2 mps 751 mmHg 65%
    10:00 -1°C° 0 mm 2 mps 751 mmHg 61%
    11:00 +2°C° 0 mm 2 mps 750 mmHg 56%
    12:00 +3°C° 0 mm 2 mps 750 mmHg 58%
    13:00 +3°C° 0 mm 2 mps 749 mmHg 59%
    14:00 +4°C° 0 mm 2 mps 749 mmHg 60%
    15:00 +3°C° 0 mm 2 mps 749 mmHg 65%
    16:00 +3°C° 0 mm 2 mps 749 mmHg 70%
    17:00 +2°C° 0 mm 2 mps 748 mmHg 75%
    18:00 +2°C° 0 mm 2 mps 748 mmHg 77%
    19:00 +2°C° 0 mm 2 mps 748 mmHg 78%
    20:00 +3°C° 0 mm 1 mps 748 mmHg 80%
    21:00 +2°C° 0 mm 2 mps 748 mmHg 80%
    22:00 +2°C° 0 mm 2 mps 748 mmHg 80%
    23:00 +2°C° 0 mm 2 mps 748 mmHg 80%
    Show more